• In Germany
  • List of Countries
  • For 7 days
  • Water Temperature
  • Satellite Maps
  • Weather Map
  • Weather Widgets
  • user-avatar
    Login

    Hourly Weather Stara Zagora

    Today, 16 January, Tuesday

    Time Temperature Precipitation Wind Pressure Humidity
    00:00 +1°C° 0.4 mm 1 mps 747 mmHg 93%
    01:00 +1°C° 0.4 mm 1 mps 747 mmHg 94%
    02:00 0°C° 0 mm 1 mps 746 mmHg 96%
    03:00 -1°C° 0.1 mm 0 mps 746 mmHg 95%
    04:00 -1°C° 0.1 mm 0 mps 745 mmHg 95%
    05:00 -1°C° 0.1 mm 0 mps 745 mmHg 95%
    06:00 -1°C° 0.1 mm 0 mps 744 mmHg 94%
    07:00 -1°C° 0.1 mm 0 mps 744 mmHg 94%
    08:00 +1°C° 0.1 mm 1 mps 743 mmHg 93%
    09:00 0°C° 0 mm 0 mps 743 mmHg 92%
    10:00 +1°C° 0 mm 0 mps 743 mmHg 90%
    11:00 +2°C° 0 mm 0 mps 743 mmHg 89%
    12:00 +3°C° 0 mm 0 mps 742 mmHg 88%
    13:00 +4°C° 0 mm 0 mps 742 mmHg 87%
    14:00 +6°C° 0 mm 1 mps 741 mmHg 86%
    15:00 +5°C° 0 mm 1 mps 741 mmHg 87%
    16:00 +4°C° 0 mm 1 mps 740 mmHg 89%
    17:00 +4°C° 0 mm 1 mps 739 mmHg 90%
    18:00 +4°C° 0 mm 1 mps 739 mmHg 89%
    19:00 +3°C° 0 mm 1 mps 739 mmHg 89%
    20:00 +3°C° 0 mm 1 mps 738 mmHg 88%
    21:00 +3°C° 0 mm 1 mps 738 mmHg 88%
    22:00 +3°C° 0 mm 1 mps 738 mmHg 88%
    23:00 +3°C° 0 mm 1 mps 738 mmHg 89%

    Tomorrow, 17 January, Wednesday

    Time Temperature Precipitation Wind Pressure Humidity
    00:00 +3°C° 0 mm 1 mps 737 mmHg 88%
    01:00 +3°C° 0 mm 1 mps 737 mmHg 88%
    02:00 +3°C° 0 mm 1 mps 737 mmHg 87%
    03:00 +3°C° 0 mm 1 mps 736 mmHg 86%
    04:00 +3°C° 0 mm 1 mps 736 mmHg 86%
    05:00 +3°C° 0 mm 1 mps 735 mmHg 85%
    06:00 +3°C° 0 mm 1 mps 735 mmHg 84%
    07:00 +3°C° 0 mm 1 mps 735 mmHg 84%
    08:00 +3°C° 0 mm 1 mps 734 mmHg 83%
    09:00 +4°C° 0 mm 1 mps 734 mmHg 81%
    10:00 +6°C° 0 mm 1 mps 733 mmHg 79%
    11:00 +6°C° 0 mm 2 mps 733 mmHg 77%
    12:00 +7°C° 0 mm 2 mps 731 mmHg 75%
    13:00 +8°C° 0 mm 3 mps 730 mmHg 73%
    14:00 +9°C° 0 mm 3 mps 729 mmHg 71%
    15:00 +8°C° 0 mm 3 mps 728 mmHg 74%
    16:00 +8°C° 0 mm 3 mps 727 mmHg 76%
    17:00 +6°C° 0 mm 4 mps 726 mmHg 78%
    18:00 +6°C° 0 mm 4 mps 726 mmHg 79%
    19:00 +6°C° 0 mm 4 mps 725 mmHg 81%
    20:00 +6°C° 0 mm 4 mps 725 mmHg 83%
    21:00 +6°C° 0.2 mm 5 mps 725 mmHg 82%
    22:00 +6°C° 0.2 mm 5 mps 725 mmHg 81%
    23:00 +4°C° 0.2 mm 6 mps 725 mmHg 81%

    Day after tomorrow, 18 January, Thursday

    Time Temperature Precipitation Wind Pressure Humidity
    00:00 +3°C° 0 mm 6 mps 726 mmHg 78%
    01:00 +2°C° 0 mm 7 mps 727 mmHg 75%
    02:00 0°C° 0 mm 8 mps 728 mmHg 72%
    03:00 -1°C° 0 mm 8 mps 729 mmHg 68%
    04:00 -1°C° 0 mm 9 mps 730 mmHg 64%
    05:00 -3°C° 0 mm 10 mps 730 mmHg 60%
    06:00 -3°C° 0 mm 10 mps 732 mmHg 60%
    07:00 -3°C° 0 mm 10 mps 733 mmHg 59%
    08:00 -4°C° 0 mm 10 mps 734 mmHg 58%
    09:00 -3°C° 0 mm 10 mps 735 mmHg 57%
    10:00 -2°C° 0 mm 11 mps 736 mmHg 55%
    11:00 -1°C° 0 mm 11 mps 737 mmHg 54%
    12:00 +1°C° 0 mm 10 mps 738 mmHg 52%
    13:00 +1°C° 0 mm 9 mps 738 mmHg 50%
    14:00 +2°C° 0 mm 9 mps 738 mmHg 48%
    15:00 +2°C° 0 mm 7 mps 739 mmHg 51%
    16:00 +2°C° 0 mm 6 mps 739 mmHg 55%
    17:00 +1°C° 0 mm 4 mps 740 mmHg 59%
    18:00 0°C° 0 mm 4 mps 740 mmHg 60%
    19:00 +1°C° 0 mm 3 mps 741 mmHg 61%
    20:00 0°C° 0 mm 3 mps 741 mmHg 62%
    21:00 0°C° 0 mm 3 mps 741 mmHg 61%
    22:00 +1°C° 0 mm 2 mps 741 mmHg 60%
    23:00 +1°C° 0 mm 2 mps 741 mmHg 58%

    19 January, Friday

    Time Temperature Precipitation Wind Pressure Humidity
    00:00 +1°C° 0 mm 2 mps 740 mmHg 58%
    01:00 +1°C° 0 mm 2 mps 740 mmHg 57%
    02:00 +1°C° 0 mm 2 mps 740 mmHg 57%
    03:00 +1°C° 0 mm 2 mps 740 mmHg 57%
    04:00 +1°C° 0 mm 2 mps 739 mmHg 56%
    05:00 +1°C° 0 mm 2 mps 739 mmHg 56%
    06:00 +1°C° 0 mm 2 mps 739 mmHg 56%
    07:00 +1°C° 0 mm 2 mps 739 mmHg 55%
    08:00 +3°C° 0 mm 1 mps 739 mmHg 54%
    09:00 +4°C° 0 mm 1 mps 739 mmHg 51%
    10:00 +6°C° 0 mm 1 mps 739 mmHg 48%
    11:00 +8°C° 0 mm 1 mps 739 mmHg 45%
    12:00 +9°C° 0 mm 1 mps 739 mmHg 44%
    13:00 +9°C° 0 mm 1 mps 739 mmHg 44%
    14:00 +10°C° 0 mm 1 mps 738 mmHg 43%
    15:00 +9°C° 0 mm 1 mps 738 mmHg 47%
    16:00 +8°C° 0 mm 1 mps 738 mmHg 51%
    17:00 +7°C° 0 mm 1 mps 738 mmHg 56%
    18:00 +6°C° 0 mm 1 mps 738 mmHg 56%
    19:00 +6°C° 0 mm 1 mps 739 mmHg 56%
    20:00 +5°C° 0 mm 1 mps 739 mmHg 57%
    21:00 +5°C° 0 mm 1 mps 739 mmHg 58%
    22:00 +5°C° 0 mm 1 mps 739 mmHg 60%
    23:00 +5°C° 0 mm 1 mps 739 mmHg 62%

    20 January, Saturday

    Time Temperature Precipitation Wind Pressure Humidity
    00:00 +5°C° 0 mm 1 mps 739 mmHg 64%
    01:00 +5°C° 0 mm 1 mps 739 mmHg 66%
    02:00 +4°C° 0 mm 1 mps 739 mmHg 68%
    03:00 +4°C° 0 mm 1 mps 738 mmHg 70%
    04:00 +4°C° 0 mm 1 mps 738 mmHg 71%
    05:00 +4°C° 0 mm 1 mps 738 mmHg 72%
    06:00 +4°C° 0 mm 1 mps 738 mmHg 74%
    07:00 +4°C° 0 mm 1 mps 738 mmHg 75%
    08:00 +3°C° 0 mm 2 mps 738 mmHg 77%
    09:00 +5°C° 0 mm 2 mps 737 mmHg 75%
    10:00 +7°C° 0 mm 3 mps 737 mmHg 74%
    11:00 +9°C° 0 mm 3 mps 737 mmHg 72%
    12:00 +10°C° 0 mm 4 mps 737 mmHg 70%
    13:00 +11°C° 0 mm 4 mps 736 mmHg 68%
    14:00 +12°C° 0 mm 5 mps 736 mmHg 66%
    15:00 +10°C° 0 mm 5 mps 736 mmHg 70%
    16:00 +10°C° 0 mm 4 mps 735 mmHg 75%
    17:00 +10°C° 0 mm 4 mps 735 mmHg 79%
    18:00 +8°C° 0 mm 4 mps 735 mmHg 82%
    19:00 +8°C° 0 mm 5 mps 735 mmHg 84%
    20:00 +8°C° 0 mm 5 mps 735 mmHg 87%
    21:00 +8°C° 0 mm 5 mps 735 mmHg 86%
    22:00 +8°C° 0 mm 5 mps 735 mmHg 85%
    23:00 +9°C° 0 mm 6 mps 734 mmHg 84%

    21 January, Sunday

    Time Temperature Precipitation Wind Pressure Humidity
    00:00 +9°C° 0.1 mm 6 mps 734 mmHg 83%
    01:00 +9°C° 0.1 mm 6 mps 733 mmHg 83%
    02:00 +9°C° 0.1 mm 6 mps 733 mmHg 83%
    03:00 +9°C° 0.1 mm 7 mps 732 mmHg 81%
    04:00 +9°C° 0.1 mm 7 mps 731 mmHg 79%
    05:00 +9°C° 0.1 mm 8 mps 730 mmHg 78%
    06:00 +9°C° 0.3 mm 8 mps 730 mmHg 79%
    07:00 +9°C° 0.3 mm 8 mps 729 mmHg 79%
    08:00 +9°C° 0.3 mm 8 mps 729 mmHg 80%
    09:00 +10°C° 0.6 mm 9 mps 729 mmHg 77%
    10:00 +11°C° 0.6 mm 10 mps 728 mmHg 74%
    11:00 +11°C° 0.6 mm 11 mps 728 mmHg 71%
    12:00 +11°C° 0.6 mm 11 mps 727 mmHg 71%
    13:00 +12°C° 0.6 mm 11 mps 727 mmHg 70%
    14:00 +12°C° 0.6 mm 11 mps 726 mmHg 70%
    15:00 +11°C° 1.1 mm 10 mps 726 mmHg 73%
    16:00 +10°C° 1.1 mm 9 mps 726 mmHg 77%
    17:00 +10°C° 1.1 mm 8 mps 725 mmHg 80%
    18:00 +9°C° 1 mm 6 mps 725 mmHg 82%
    19:00 +9°C° 1 mm 5 mps 725 mmHg 85%
    20:00 +10°C° 1 mm 4 mps 725 mmHg 87%
    21:00 +8°C° 1.3 mm 4 mps 724 mmHg 87%
    22:00 +8°C° 1.3 mm 4 mps 724 mmHg 87%
    23:00 +8°C° 1.3 mm 5 mps 723 mmHg 88%
    Show more